{"data":{"norad_id":68377,"epoch":"2026-05-23T23:39:28.028448Z","epoch_age_seconds":158621,"freshness":"FRESH","line1":"1 68377U 26062A   26143.98574107  .00001471  00000+0  72022-4 0  9993","line2":"2 68377  97.4368 151.6381 0001958 107.1779 252.9671 15.19722639  8971","mean_motion":15.19722639,"eccentricity":0.0001958,"inclination_deg":97.4368,"raan_deg":151.6381,"arg_perigee_deg":107.1779,"mean_anomaly_deg":252.9671,"bstar":7.2022e-5,"rev_number":897,"period_min":94.754132303217,"perigee_km":505.3301271507,"apogee_km":508.02622077282,"semimajor_km":6884.8151739618,"source":"CELESTRAK","updated_at":"2026-05-25T13:38:07.768693Z"}}